[[{"header":{"parameterUnit":"m.s-1","parameterCategory":1,"la1":30.2991,"la2":30.254,"lo1":-89.0895,"lo2":-89.0444,"dy":0.0017,"dx":0.0017,"nx":28,"ny":28,"refTime":"2023-08-14T03:00:00:Z","depth":0,"parameterNumber":2,"parameterNumberName":"U-component_of_WINDS"},"data":[0,0,0,0,0,0,0,0,0,0,0,0,0,0,0,0,0,0,0,0,0,0,0,0,0,0,0,0,0,0,0,0,0,0,0,0,0,0,0,0,0,0,0,0,0,0,0,0,0,0,0,0,0,0,0,0,0,0,4.3341,4.3343,0,4.3458,4.3459,4.346,4.3402,4.3399,4.3396,4.3393,4.3514,4.3519,4.3525,0,0,0,0,0,0,0,0,0,0,0,0,0,4.307,4.3075,4.3341,4.3343,4.3344,4.3457,4.3459,4.3461,4.3403,4.3399,4.3396,4.3392,4.3512,4.3519,4.3526,0,0,0,0,0,0,0,0,0,0,0,0,0,4.3187,4.3077,4.3341,4.3329,4.3329,4.3457,4.3459,4.3461,4.3404,4.3399,4.3395,4.339,4.3509,4.3518,4.3527,4.3674,0,0,4.3555,4.3558,0,0,0,0,0,0,0,0,4.318,4.3197,4.3329,4.333,4.333,4.3411,4.3407,4.3532,4.3405,4.3375,4.3393,4.3388,4.3483,4.3494,4.3526,4.3679,4.3685,4.3555,4.3561,4.3565,4.3567,0,0,0,0,0,0,0,4.3172,4.3192,4.3387,4.3331,4.3332,4.3318,4.333,4.3431,4.3453,4.3378,4.3374,4.3388,4.3482,4.3517,4.3528,4.3686,4.3555,4.3563,4.3569,4.3572,4.3966,4.397,0,0,0,0,0,0,4.3165,4.3185,4.3383,4.3391,4.3243,4.3327,4.334,4.339,4.3452,4.3457,4.3392,4.3385,4.3504,4.3518,4.3532,4.3708,4.3565,4.3573,4.3578,4.3961,4.3967,4.3972,0,0,0,0,0,0,4.3159,4.3183,4.3379,4.3287,4.3311,4.3336,4.3393,4.3394,4.3429,4.3463,4.3467,4.3423,4.3501,4.352,4.3639,4.3711,4.3577,4.3585,4.3955,4.3963,4.397,4.4061,0,0,0,0,0,0,4.3151,4.3181,4.3237,4.3289,4.3316,4.3484,4.3397,4.34,4.3445,4.3437,4.3493,4.3498,4.3499,4.3626,4.3648,4.3721,4.3592,4.3948,4.3958,4.3967,4.4051,4.407,4.4087,0,0,0,0,0,4.3142,4.3258,4.324,4.3265,4.3386,4.3488,4.3504,4.3501,4.3451,4.3507,4.3529,4.3497,4.37,4.3638,4.3663,4.374,4.3944,4.3955,4.3966,4.4043,4.4067,4.4086,0,0,0,0,0,0,4.3215,4.3265,4.3245,4.3382,4.3431,4.3478,4.3549,4.3526,4.3591,4.3581,4.3576,4.3589,4.3713,4.3738,4.3669,4.3885,4.3814,4.3831,4.3864,4.3886,4.3904,4.3895,4.36,0,0,0,0,0,4.3247,4.3325,4.3365,4.3481,4.3507,4.3524,4.3568,4.3562,4.3613,4.3634,4.3664,4.3715,4.379,4.384,4.3911,4.4055,4.4066,4.412,4.4138,4.4152,4.4166,4.4244,4.4268,4.4009,4.4009,4.4009,0,0,4.3314,4.3351,4.3401,4.3497,4.3534,4.3615,4.3542,4.3631,4.3691,4.3647,4.3761,4.3786,4.3842,4.3974,4.4034,4.3999,4.424,4.4166,4.4178,4.4184,4.4258,4.4282,4.4304,4.4017,4.4016,4.4014,0,0,4.3478,4.3513,4.3614,4.3653,4.371,4.3721,4.3745,4.3796,4.381,4.3925,4.3893,4.3965,4.4095,4.4136,4.4174,4.4353,4.4325,4.4376,4.4468,4.4544,4.4564,4.4582,4.4646,4.4669,4.439,4.4391,4.4391,0,4.3554,4.3674,4.3669,4.3761,4.3804,4.3768,4.387,4.3908,4.3986,4.4016,4.3976,4.4138,4.4174,4.4314,4.4358,4.439,4.4418,4.4369,4.4562,4.458,4.4597,4.4657,4.4681,4.4396,4.4396,4.4395,4.4395,0,4.3765,4.3849,4.3924,4.3999,4.4051,4.4147,4.4157,4.421,4.42,4.4214,4.4331,4.4372,4.4451,4.4484,4.4475,4.4624,4.4601,4.4562,4.449,4.4627,4.4684,4.4707,4.4405,4.4403,4.4401,4.4399,0,0,4.3978,4.4049,4.4076,4.411,4.417,4.4235,4.433,4.4407,4.4452,4.4507,4.4586,4.4696,4.466,4.4704,4.4699,4.4765,4.4904,4.4718,4.4719,4.4751,4.507,4.5098,4.5125,4.4886,4.489,4.4894,4.5065,0,4.4145,4.431,4.4308,4.4461,4.4539,4.4505,4.4588,4.4634,4.465,4.4718,4.4736,4.4815,4.4761,4.4787,4.4852,4.4873,4.4968,4.4861,4.4959,4.4963,4.4946,4.5155,4.5185,4.5345,4.5087,4.5091,4.5093,0,4.4362,4.4424,4.4584,4.4633,4.4665,4.4739,4.4809,4.4875,4.4926,4.4933,4.4981,4.4966,4.5062,4.4988,4.512,4.5048,4.5088,4.5105,4.5111,4.512,4.5036,4.5169,4.5395,4.5419,4.5128,4.5125,4.5123,0,4.4501,4.4624,4.4736,4.4765,4.4825,4.4878,4.4905,4.4952,4.4998,4.5059,4.5089,4.516,4.52,4.5255,4.526,4.5206,4.5393,4.5319,4.5402,4.5402,4.5442,4.544,4.5678,4.547,4.5469,4.5469,4.5468,0,4.4688,4.4787,4.4799,4.4867,4.4978,4.4975,4.5084,4.5107,4.5149,4.5221,4.5197,4.5266,4.5268,4.5338,4.5343,4.5451,4.5469,4.5477,4.5477,4.5479,4.5478,4.5505,4.5494,4.5475,4.5474,4.5472,4.5471,0,4.4861,4.4873,4.4992,4.5039,4.5053,4.5132,4.5172,4.5237,4.5251,4.5343,4.5364,4.5387,4.5468,4.5478,4.5573,4.5576,4.5707,4.5695,4.5689,4.5687,4.5768,4.576,4.6032,4.6067,4.5836,4.5839,4.584,0,4.4979,4.5055,4.5109,4.5156,4.5186,4.5261,4.5308,4.5308,4.5357,4.5421,4.5479,4.5558,4.5621,4.5752,4.5777,4.585,4.5839,4.593,4.585,4.5849,4.584,4.5835,4.5842,4.5945,4.5947,4.5949,4.5951,0,4.5188,4.519,4.5257,4.5328,4.5383,4.5439,4.549,4.553,4.5536,4.5593,4.5676,4.5725,4.5821,4.59,4.5971,4.5999,4.5977,4.5976,4.5999,4.6001,4.5994,4.5998,4.573,4.597,4.5968,4.5966,4.5965,4.5965,4.5337,4.5402,4.5451,4.5527,4.5565,4.5614,4.5678,4.5699,4.5768,4.5846,4.5842,4.5933,4.5982,4.6076,4.6109,4.618,4.615,4.6183,4.6192,4.62,4.6207,4.5983,4.6193,4.6193,4.6192,4.6192,4.6191,0,4.5544,4.5573,4.5643,4.5716,4.5776,4.5748,4.5804,4.5856,4.5936,4.5984,4.6046,4.614,4.6216,4.6247,4.6321,4.6372,4.6363,4.6391,4.6387,4.6394,4.623,4.6203,4.6397,4.6397,4.6397,4.6397,4.6397,4.6397,4.5658,4.5767,4.5775,4.5902,4.5931,4.6019,4.6053,4.6098,4.6136,4.6242,4.6305,4.6324,4.6364,4.6441,4.6509,4.6516,4.6545,4.6577,4.658,4.6426,4.6405,4.6386,4.636,4.6584,4.6584,4.6737,4.6738,4.6739]},{"header":{"parameterUnit":"m.s-1","parameterCategory":1,"la1":30.2991,"la2":30.254,"lo1":-89.0895,"lo2":-89.0444,"dy":0.0017,"dx":0.0017,"nx":28,"ny":28,"refTime":"2023-08-14T03:00:00:Z","depth":0,"parameterNumber":3,"parameterNumberName":"V-component_of_WINDS"},"data":[0,0,0,0,0,0,0,0,0,0,0,0,0,0,0,0,0,0,0,0,0,0,0,0,0,0,0,0,0,0,0,0,0,0,0,0,0,0,0,0,0,0,0,0,0,0,0,0,0,0,0,0,0,0,0,0,0,0,-0.0619,-0.0618,0,-0.0509,-0.0507,-0.0506,-0.0478,-0.0478,-0.0479,-0.048,-0.0364,-0.0361,-0.0357,0,0,0,0,0,0,0,0,0,0,0,0,0,-0.0803,-0.08,-0.0619,-0.0617,-0.0616,-0.0509,-0.0507,-0.0506,-0.0478,-0.0478,-0.0479,-0.048,-0.0365,-0.0361,-0.0356,0,0,0,0,0,0,0,0,0,0,0,0,0,-0.0711,-0.0799,-0.0619,-0.0589,-0.0585,-0.0509,-0.0507,-0.0505,-0.0477,-0.0478,-0.048,-0.048,-0.0367,-0.0361,-0.0356,-0.0301,0,0,-0.0339,-0.0336,0,0,0,0,0,0,0,0,-0.0716,-0.0704,-0.0595,-0.0591,-0.0587,-0.0508,-0.053,-0.0437,-0.0477,-0.0518,-0.048,-0.0481,-0.0411,-0.0402,-0.0379,-0.0295,-0.029,-0.0338,-0.0335,-0.0333,-0.0331,0,0,0,0,0,0,0,-0.0723,-0.0709,-0.0575,-0.0593,-0.0588,-0.0581,-0.0569,-0.0512,-0.046,-0.0515,-0.0513,-0.05,-0.0409,-0.0384,-0.0376,-0.0288,-0.0338,-0.0333,-0.033,-0.0328,-0.0154,-0.0153,0,0,0,0,0,0,-0.0734,-0.0714,-0.0579,-0.0572,-0.0655,-0.0577,-0.0563,-0.0532,-0.0461,-0.0451,-0.0499,-0.0499,-0.0393,-0.0382,-0.0372,-0.0302,-0.0333,-0.0327,-0.0324,-0.0156,-0.0154,-0.0153,0,0,0,0,0,0,-0.0739,-0.0723,-0.0583,-0.0642,-0.0624,-0.0572,-0.0538,-0.0529,-0.0505,-0.0449,-0.0439,-0.0484,-0.0394,-0.038,-0.0319,-0.0298,-0.0325,-0.032,-0.0157,-0.0155,-0.0153,-0.0163,0,0,0,0,0,0,-0.0744,-0.0724,-0.0703,-0.0642,-0.0621,-0.0532,-0.0536,-0.0527,-0.0496,-0.0494,-0.0432,-0.0422,-0.0393,-0.0327,-0.0313,-0.0291,-0.0315,-0.0159,-0.0156,-0.0154,-0.0164,-0.0161,-0.0159,0,0,0,0,0,-0.0751,-0.0709,-0.0702,-0.0686,-0.0594,-0.0531,-0.0519,-0.0487,-0.0494,-0.0472,-0.0436,-0.0424,-0.0303,-0.0321,-0.0305,-0.0281,-0.016,-0.0157,-0.0154,-0.0165,-0.0162,-0.0159,0,0,0,0,0,0,-0.0768,-0.0701,-0.0692,-0.063,-0.0587,-0.0527,-0.0498,-0.0485,-0.0438,-0.0439,-0.0401,-0.0387,-0.0329,-0.0299,-0.032,-0.0223,-0.0231,-0.0225,-0.0245,-0.0242,-0.0239,-0.0247,-0.0311,0,0,0,0,0,-0.0765,-0.0721,-0.0664,-0.0615,-0.0594,-0.055,-0.0521,-0.0501,-0.0454,-0.0435,-0.0395,-0.035,-0.0301,-0.027,-0.0222,-0.016,-0.0146,-0.0135,-0.0133,-0.0131,-0.0126,-0.0091,-0.0086,-0.0143,-0.0143,-0.0143,0,0,-0.0757,-0.0715,-0.0689,-0.0617,-0.0581,-0.0536,-0.0534,-0.0486,-0.0452,-0.0428,-0.0368,-0.0337,-0.0284,-0.0222,-0.0193,-0.0195,-0.0107,-0.0128,-0.0127,-0.0122,-0.0088,-0.0082,-0.0077,-0.0141,-0.0142,-0.0142,0,0,-0.072,-0.0684,-0.0639,-0.0604,-0.055,-0.0521,-0.0511,-0.0453,-0.0431,-0.0371,-0.0352,-0.0311,-0.0228,-0.0191,-0.0161,-0.0112,-0.0099,-0.0098,-0.0084,-0.0051,-0.0046,-0.0042,-0.0024,-0.0018,-0.0093,-0.0093,-0.0093,0,-0.0717,-0.0649,-0.0618,-0.057,-0.0539,-0.0517,-0.0471,-0.0438,-0.0371,-0.0349,-0.0353,-0.025,-0.0212,-0.0142,-0.013,-0.0107,-0.0093,-0.0104,-0.0049,-0.0045,-0.004,-0.0023,-0.0016,-0.0093,-0.0093,-0.0093,-0.0093,0,-0.0648,-0.06,-0.0571,-0.0508,-0.0473,-0.0427,-0.0388,-0.0357,-0.034,-0.0311,-0.025,-0.0205,-0.0148,-0.013,-0.0112,-0.0057,-0.006,-0.0057,-0.0064,-0.0036,-0.0018,-0.0011,-0.0093,-0.0093,-0.0093,-0.0093,0,0,-0.0617,-0.0539,-0.0528,-0.0499,-0.0439,-0.0401,-0.0354,-0.03,-0.0273,-0.0228,-0.0187,-0.0119,-0.0116,-0.0083,-0.0061,-0.0032,0.0005,-0.0032,-0.0031,-0.0027,0.0069,0.0067,0.0074,0.0013,0.0014,0.0015,0.0064,0,-0.0572,-0.0487,-0.0459,-0.0388,-0.0344,-0.0323,-0.0282,-0.0241,-0.0212,-0.017,-0.0139,-0.0091,-0.0091,-0.0071,-0.0041,-0.0006,0.0025,-0.0009,0.0052,0.0054,0.0039,0.0083,0.0082,0.0126,0.0071,0.0072,0.0073,0,-0.0507,-0.0463,-0.0389,-0.0334,-0.0315,-0.0278,-0.0226,-0.0187,-0.0139,-0.0121,-0.0084,-0.0065,-0.0014,-0.0025,0.0045,0.0021,0.0048,0.0069,0.0071,0.0079,0.0066,0.0093,0.0141,0.0147,0.0084,0.0083,0.0082,0,-0.0492,-0.0413,-0.0358,-0.0335,-0.027,-0.0245,-0.0217,-0.0171,-0.014,-0.0094,-0.0074,-0.0023,0.0006,0.0045,0.0078,0.0066,0.0145,0.0137,0.0162,0.0161,0.0179,0.0178,0.0232,0.0194,0.0194,0.0194,0.0194,0,-0.0444,-0.0399,-0.0351,-0.0317,-0.0266,-0.0234,-0.0185,-0.0155,-0.0114,-0.0074,-0.0053,-0.0016,0.0025,0.0067,0.0093,0.0147,0.016,0.0177,0.0183,0.0175,0.0173,0.0194,0.0192,0.0196,0.0196,0.0195,0.0195,0,-0.0417,-0.0383,-0.0322,-0.0267,-0.0252,-0.0217,-0.0169,-0.0136,-0.0107,-0.0057,-0.0043,0.0002,0.0053,0.0089,0.0155,0.0172,0.0231,0.0237,0.0214,0.0218,0.0242,0.0239,0.0313,0.0324,0.0277,0.0278,0.0278,0,-0.0388,-0.0354,-0.0295,-0.0267,-0.024,-0.0195,-0.0164,-0.0131,-0.0099,-0.0043,-0.0016,0.0036,0.008,0.0161,0.02,0.025,0.0258,0.028,0.0266,0.0256,0.0259,0.0257,0.026,0.0282,0.0283,0.0283,0.0283,0,-0.0341,-0.0326,-0.0282,-0.0233,-0.0197,-0.0156,-0.0115,-0.0093,-0.0053,-0.0018,0.0033,0.0067,0.0134,0.0186,0.0239,0.0269,0.0283,0.0287,0.0296,0.0289,0.0275,0.0283,0.0221,0.0286,0.0285,0.0285,0.0285,0.0285,-0.0311,-0.028,-0.0234,-0.0186,-0.0152,-0.0115,-0.0081,-0.0049,-0.0005,0.0051,0.0068,0.0122,0.0168,0.0242,0.0272,0.0315,0.0314,0.0326,0.0329,0.0332,0.0332,0.0267,0.0325,0.0325,0.0325,0.0325,0.0325,0,-0.0262,-0.0232,-0.0189,-0.0133,-0.0095,-0.0087,-0.0041,-0.001,0.0037,0.0078,0.012,0.0179,0.0229,0.0271,0.0323,0.035,0.0357,0.0362,0.0361,0.0368,0.033,0.0318,0.0355,0.0355,0.0355,0.0355,0.0355,0.0355,-0.0232,-0.0179,-0.0159,-0.0088,-0.0058,-0.0005,0.002,0.0055,0.0088,0.0153,0.0194,0.0221,0.0263,0.0317,0.0364,0.0375,0.0393,0.0397,0.0409,0.0374,0.037,0.0367,0.0356,0.04,0.04,0.0443,0.0444,0.0444]}]]